User: anonymous   Login
Location: Unspecified
(0.0000°N, 0.0000°E)
Time: 16:28:12
(UTC+00:00)
Language:

ESSA 7 - Orbit

View from above orbital plane
View from above orbital plane
View from above satellite
View from above satellite

Ground track
Ground track

The orbit data is extracted from the following two-line orbital elements,

1  3345U 68069A   19016.01240674 -.00000049  00000-0 -37179-4 0  9991
2  3345 101.4245  48.7690 0026970  63.3057   5.6185 12.52973272306112
Epoch (UTC): 16 January 2019 00:17:51
Eccentricity: 0.0026970
inclination: 101.4245°
perigee height: 1431 km
apogee height: 1473 km
right ascension of ascending node: 48.7690°
argument of perigee: 63.3057°
revolutions per day: 12.52973272
mean anomaly at epoch: 5.6185°
orbit number at epoch: 30611

The dashed part of the orbit path shows where the satellite is in the earth's shadow,  

DLR